Location: Mapua
(41.2500°S, 173.1000°E)
Time: 18:16:22
(UTC+13:00)

Amateur Radio Satellites - All Passes

Search period start: 18 December 2017 17:46
Search period end: 19 December 2017 17:46
Location: Mapua, 41.2500°S, 173.1000°E

Satellite Date Start Highest point End Downlink Frequencies (MHz)
Time Altitude Azimuth
M-CUBED/EXP-1 PRIME 18 Dec 17:48:47 17:52:12 46° 249° (WSW) 17:55:48 437.505
CUBESAT XI-V 18 Dec 17:55:14 17:58:46 21° 273° (W) 18:02:20 437.345
NO-84 18 Dec 17:57:28 18:01:08 29° 51° (NE) 18:04:42 435.350 FM
STARS 18 Dec 18:17:00 18:21:20 56° 107° (ESE) 18:25:44 437.465
BEESAT 2 18 Dec 18:24:01 18:27:56 83° 301° (WNW) 18:31:51 435.950
AO-7 18 Dec 18:35:09 18:42:33 37° 239° (WSW) 18:49:55 .
NUDT-PHONESAT 18 Dec 18:44:45 18:46:13 12° 89° (E) 18:47:41 437.300
YUBILEINY 18 Dec 18:44:59 18:48:56 14° 237° (WSW) 18:52:55 435.215
LilacSat-2 18 Dec 18:46:05 18:49:04 21° 86° (E) 18:52:01 437.200
AO-85 18 Dec 18:47:07 18:51:26 44° 129° (SE) 18:55:25 145.980
DOVE 4 18 Dec 18:48:29 18:53:32 62° 254° (WSW) 18:58:44 437.250
KAITUO 1B 18 Dec 18:54:13 18:56:44 17° 87° (E) 18:59:14 145.475/437.950
XW-2D 18 Dec 18:55:07 18:58:21 26° 84° (E) 19:01:33 145.860 - 145.880
XW-2B 18 Dec 19:10:52 19:14:28 38° 82° (E) 19:18:01 145.730 - 145.750
ITAMSAT 1 18 Dec 19:14:27 19:16:06 11° 237° (WSW) 19:17:44 435.822/435.867
HO-68 18 Dec 19:15:28 19:20:33 20° 89° (E) 19:25:36 435.675
XW-2F 18 Dec 19:19:32 19:23:13 46° 81° (E) 19:26:50 145.980 - 146.000
KKS-1 18 Dec 19:24:03 19:25:48 12° 270° (W) 19:27:34 437.445
CUTE-I 18 Dec 19:24:08 19:29:20 44° 81° (E) 19:34:29 437.470
NO-84 18 Dec 19:34:20 19:38:21 42° 216° (SW) 19:42:10 435.350 FM
XW-2C 18 Dec 19:38:21 19:42:12 90° 332° (NNW) 19:45:58 145.795 - 145.815
STRAND 1 18 Dec 19:44:38 19:49:40 56° 108° (ESE) 19:54:47 437.568
CUBEBUG 2 18 Dec 19:49:00 19:52:13 18° 89° (E) 19:55:21 437.445
STARS 18 Dec 19:55:47 19:58:01 14° 271° (W) 20:00:14 437.465
CUTE 1.7 + AOD 2 18 Dec 19:57:47 20:01:43 34° 83° (E) 20:05:36 437.475
O/OREOS (USA 219) 18 Dec 20:01:25 20:04:22 17° 80° (E) 20:07:21 437.305
NUDT-PHONESAT 18 Dec 20:16:43 20:20:17 43° 254° (WSW) 20:23:47 437.300
LilacSat-2 18 Dec 20:20:05 20:23:17 26° 250° (WSW) 20:26:29 437.200
KAITUO 1B 18 Dec 20:27:25 20:30:46 31° 251° (WSW) 20:34:04 145.475/437.950
AO-85 18 Dec 20:28:28 20:31:25 18° 289° (WNW) 20:34:15 145.980
XW-2D 18 Dec 20:29:27 20:32:22 21° 248° (WSW) 20:35:17 145.860 - 145.880
AO-73 18 Dec 20:30:22 20:31:56 12° 91° (E) 20:33:29 145.935
XW-2B 18 Dec 20:46:04 20:48:17 15° 246° (WSW) 20:50:31 145.730 - 145.750
FO-29 18 Dec 20:53:33 20:58:44 69° 106° (ESE) 21:04:03 435.910
XW-2F 18 Dec 20:55:10 20:56:53 13° 245° (WSW) 20:58:35 145.980 - 146.000
HO-68 18 Dec 21:01:40 21:08:56 76° 251° (WSW) 21:16:08 435.675
SEEDS 18 Dec 21:02:44 21:07:00 71° 256° (WSW) 21:11:11 437.485
CUTE-I 18 Dec 21:04:42 21:09:06 25° 244° (WSW) 21:13:27 437.470
AAUSAT CUBESAT 2 18 Dec 21:09:56 21:14:06 58° 80° (E) 21:18:13 437.432
NO-84 18 Dec 21:14:20 21:16:27 14° 197° (SSW) 21:18:31 435.350 FM
UWE-3 18 Dec 21:16:09 21:20:43 88° 77° (ENE) 21:25:05 435.000/436.395/437.385
CUBEBUG 2 18 Dec 21:24:36 21:29:03 43° 251° (WSW) 21:33:18 437.445
XW-2A 18 Dec 21:25:40 21:29:05 82° 256° (WSW) 21:32:26 145.665 - 145.685
STRAND 1 18 Dec 21:25:46 21:29:12 18° 272° (W) 21:32:40 437.568
ZACube-1 18 Dec 21:32:38 21:37:03 69° 79° (E) 21:41:17 437.345
CUTE 1.7 + AOD 2 18 Dec 21:34:08 21:37:18 21° 247° (WSW) 21:40:28 437.475
O/OREOS (USA 219) 18 Dec 21:39:02 21:43:22 45° 243° (WSW) 21:47:48 437.305
Oscar 11 18 Dec 21:45:25 21:49:42 53° 80° (E) 21:53:56 .
AO-73 18 Dec 22:04:15 22:08:36 60° 254° (WSW) 22:12:46 145.935
TIGRISAT 18 Dec 22:07:52 22:12:26 53° 108° (ESE) 22:17:06 435.000
UNISAT 6 18 Dec 22:12:08 22:16:47 64° 106° (ESE) 22:21:32 437.425
nSIGHT-1 18 Dec 22:19:09 22:21:05 15° 49° (NE) 22:23:01 .
Max Valier Satellite 18 Dec 22:32:58 22:35:53 21° 86° (E) 22:38:45 145.860
FO-29 18 Dec 22:42:08 22:44:29 13° 269° (W) 22:46:52 435.910
AAUSAT CUBESAT 2 18 Dec 22:47:08 22:49:02 13° 244° (WSW) 22:50:56 437.432
HO-68 18 Dec 22:51:31 22:55:28 16° 232° (SW) 22:59:24 435.675
EO-88 18 Dec 22:51:38 22:54:42 24° 85° (E) 22:57:42 145.990 - 145.960
NO-84 18 Dec 22:54:31 22:55:09 10° 175° (S) 22:55:47 435.350 FM
DELFI C3 18 Dec 23:10:23 23:14:27 84° 257° (WSW) 23:18:28 145.870
ZACube-1 18 Dec 23:11:04 23:12:40 12° 241° (WSW) 23:14:15 437.345
ISS 18 Dec 23:13:44 23:16:50 39° 42° (NE) 23:19:59 437.550
PRISM 18 Dec 23:15:53 23:19:58 89° 268° (W) 23:24:08 437.425
Oscar 11 18 Dec 23:22:55 23:25:23 15° 244° (WSW) 23:27:49 .
NANOSAT C BR1 18 Dec 23:22:58 23:24:38 12° 118° (ESE) 23:26:19 145.865
EO-79 18 Dec 23:39:14 23:42:25 20° 114° (ESE) 23:45:37 145.935-145.965
TIGRISAT 18 Dec 23:46:28 23:49:24 16° 271° (W) 23:52:23 435.000
UNISAT 6 18 Dec 23:51:37 23:53:54 13° 269° (W) 23:56:12 437.425
nSIGHT-1 18 Dec 23:53:45 23:56:57 61° 214° (SSW) 00:00:10 .
POLYITAN 1 19 Dec 00:02:26 00:06:22 35° 110° (ESE) 00:10:21 437.675
Max Valier Satellite 19 Dec 00:06:34 00:09:38 24° 250° (WSW) 00:12:38 145.860
AIST 2D 19 Dec 00:09:28 00:12:57 55° 280° (W) 00:16:28 435.315
EO-88 19 Dec 00:25:20 00:28:11 21° 249° (WSW) 00:31:01 145.990 - 145.960
DUCHIFAT 1 19 Dec 00:26:50 00:30:59 49° 107° (ESE) 00:35:11 145.980
ESTCUBE 1 19 Dec 00:27:48 00:31:59 34° 83° (E) 00:36:06 437.505/2401.250
QB50P2 19 Dec 00:28:02 00:32:21 76° 105° (ESE) 00:36:43 145.880/145.840
NO-84 19 Dec 00:30:46 00:33:37 22° 154° (SSE) 00:36:19 435.350 FM
LO-87 19 Dec 00:42:22 00:46:05 74° 79° (ENE) 00:49:42 145.935 - 145.965
ISS 19 Dec 00:50:25 00:53:23 30° 205° (SSW) 00:56:23 437.550
BUGSAT 1 19 Dec 00:52:31 00:55:54 23° 113° (ESE) 00:59:20 437.445
NANOSAT C BR1 19 Dec 00:55:28 00:59:45 68° 281° (W) 01:04:05 145.865
YUBILEINY 19 Dec 00:58:32 01:01:30 12° 125° (SE) 01:04:28 435.215
EO-79 19 Dec 01:13:54 01:17:54 37° 278° (W) 01:21:57 145.935-145.965
Gurwin Techsat 1B 19 Dec 01:25:14 01:29:35 26° 115° (ESE) 01:33:59 435.225
RS-15 19 Dec 01:31:26 01:38:12 19° 81° (E) 01:44:57 29.354- 29.394
nSIGHT-1 19 Dec 01:31:27 01:33:40 17° 194° (SSW) 01:35:54 .
POLYITAN 1 19 Dec 01:38:57 01:42:13 21° 274° (W) 01:45:30 437.675
VELOX 1 19 Dec 01:43:43 01:47:46 32° 83° (E) 01:51:47 145.980
Oscar 19 19 Dec 01:50:05 01:55:10 57° 108° (ESE) 02:00:18 437.125/150
AO-7 19 Dec 01:52:30 01:57:28 17° 132° (SE) 02:02:26 .
SPROUT 19 Dec 01:53:20 01:57:43 72° 78° (ENE) 02:02:00 437.525
DUCHIFAT 1 19 Dec 02:04:32 02:06:54 14° 271° (W) 02:09:17 145.980
ESTCUBE 1 19 Dec 02:04:58 02:08:34 23° 247° (WSW) 02:12:07 437.505/2401.250
NO-84 19 Dec 02:07:47 02:11:08 51° 313° (NW) 02:14:12 435.350 FM
AO-91 19 Dec 02:14:58 02:19:01 85° 283° (WNW) 02:23:38 145.960
BUGSAT 1 19 Dec 02:27:17 02:31:04 31° 276° (W) 02:34:55 437.445
DX 1 19 Dec 02:27:17 02:30:33 20° 86° (E) 02:33:47 434.975-435.025
ISS 19 Dec 02:28:46 02:30:41 14° 185° (S) 02:32:36 437.550
YUBILEINY 19 Dec 02:51:40 03:00:24 62° 102° (ESE) 03:09:04 435.215
M-CUBED/EXP-1 PRIME 19 Dec 03:01:57 03:03:51 14° 118° (ESE) 03:05:43 437.505
Gurwin Techsat 1B 19 Dec 03:04:14 03:09:17 42° 278° (W) 03:14:23 435.225
nSIGHT-1 19 Dec 03:09:03 03:10:52 14° 174° (S) 03:12:40 .
ITAMSAT 1 19 Dec 03:12:29 03:16:17 21° 118° (ESE) 03:20:06 435.822/435.867
VELOX 1 19 Dec 03:20:22 03:24:03 25° 247° (WSW) 03:27:41 145.980
Oscar 19 19 Dec 03:31:24 03:34:50 18° 272° (W) 03:38:17 437.125/150
SPROUT 19 Dec 03:31:30 03:32:57 11° 241° (WSW) 03:34:24 437.525
RS-15 19 Dec 03:37:49 03:48:41 83° 60° (ENE) 03:59:47 29.354- 29.394
UKube-1 19 Dec 03:37:59 03:42:24 72° 77° (ENE) 03:46:45 .
BEESAT 19 Dec 03:38:32 03:39:30 11° 91° (E) 03:40:28 436.000
50 SAT 19 Dec 03:39:20 03:42:28 44° 254° (WSW) 03:45:33 437.505
AO-7 19 Dec 03:40:28 03:48:47 72° 112° (ESE) 03:57:10 .
SO-50 19 Dec 03:47:49 03:52:37 72° 60° (ENE) 03:57:26 436.795
DX 1 19 Dec 04:02:43 04:06:50 38° 250° (WSW) 04:10:56 434.975-435.025
ISS 19 Dec 04:05:43 04:08:09 18° 165° (SSE) 04:10:35 437.550
ITUPSAT 1 19 Dec 04:07:19 04:11:04 22° 86° (E) 04:14:45 437.325
MOZHAYETS 4 19 Dec 04:16:02 04:20:26 41° 82° (E) 04:24:45
DOVE 4 19 Dec 04:19:06 04:21:11 13° 118° (ESE) 04:23:17 437.250
M-CUBED/EXP-1 PRIME 19 Dec 04:34:49 04:38:01 33° 284° (WNW) 04:41:08 437.505
nSIGHT-1 19 Dec 04:44:52 04:47:50 31° 154° (SSE) 04:50:47 .
YUBILEINY 19 Dec 04:49:25 04:56:33 29° 262° (W) 05:03:40 435.215
ITAMSAT 1 19 Dec 04:50:14 04:55:19 53° 280° (W) 05:00:29 435.822/435.867
CUTE-I 19 Dec 05:11:45 05:12:03 10° 124° (SE) 05:12:21 437.470
BEESAT 19 Dec 05:12:58 05:17:51 81° 255° (WSW) 05:22:38 436.000
UKube-1 19 Dec 05:16:11 05:17:47 12° 241° (WSW) 05:19:23 .
LilacSat-2 19 Dec 05:29:22 05:30:49 12° 116° (ESE) 05:32:15 437.200
SO-50 19 Dec 05:30:12 05:33:35 19° 221° (SW) 05:36:58 436.795
AO-7 19 Dec 05:35:39 05:42:11 25° 274° (W) 05:48:47 .
XW-2D 19 Dec 05:37:15 05:39:15 14° 115° (ESE) 05:41:15 145.860 - 145.880
KKS-1 19 Dec 05:37:17 05:39:10 12° 90° (E) 05:41:02 437.445
ISS 19 Dec 05:41:46 05:45:06 70° 147° (SSE) 05:48:25 437.550
ITUPSAT 1 19 Dec 05:44:27 05:49:00 40° 250° (WSW) 05:53:29 437.325
HO-68 19 Dec 05:45:51 05:50:03 17° 127° (SE) 05:54:16 435.675
CUBESAT XI-V 19 Dec 05:50:09 05:54:51 85° 254° (WSW) 05:59:30 437.345
XW-2B 19 Dec 05:52:23 05:55:11 20° 112° (ESE) 05:57:59 145.730 - 145.750
RS-15 19 Dec 05:52:47 06:02:24 34° 214° (SW) 06:12:20 29.354- 29.394
MOZHAYETS 4 19 Dec 05:53:51 05:57:16 21° 245° (WSW) 06:00:40
DOVE 4 19 Dec 05:54:06 05:58:16 59° 280° (W) 06:02:42 437.250
XW-2F 19 Dec 06:00:23 06:03:24 22° 111° (ESE) 06:06:25 145.980 - 146.000
STARS 19 Dec 06:09:36 06:09:57 10° 91° (E) 06:10:18 437.465
O/OREOS (USA 219) 19 Dec 06:09:45 06:14:02 35° 119° (ESE) 06:18:17 437.305
XW-2C 19 Dec 06:19:06 06:22:43 40° 107° (ESE) 06:26:20 145.795 - 145.815
nSIGHT-1 19 Dec 06:21:03 06:24:03 34° 317° (NW) 06:27:00 .
PCSat 19 Dec 06:31:20 06:36:15 36° 70° (ENE) 06:41:12 145.827
CUTE-I 19 Dec 06:45:46 06:51:05 71° 107° (ESE) 06:56:29 437.470
CUBEBUG 2 19 Dec 06:46:55 06:50:01 17° 116° (ESE) 06:53:08 437.445
CUTE 1.7 + AOD 2 19 Dec 06:50:25 06:53:54 25° 111° (ESE) 06:57:25 437.475
NUDT-PHONESAT 19 Dec 06:54:43 06:58:27 77° 104° (ESE) 07:02:13 437.300
LilacSat-2 19 Dec 07:00:50 07:04:36 53° 280° (W) 07:08:24 437.200
KAITUO 1B 19 Dec 07:06:11 07:09:56 71° 280° (W) 07:13:43 145.475/437.950
XW-2D 19 Dec 07:09:22 07:13:01 43° 278° (W) 07:16:43 145.860 - 145.880
KKS-1 19 Dec 07:11:36 07:16:07 64° 253° (WSW) 07:20:36 437.445
ISS 19 Dec 07:19:30 07:21:11 13° 310° (NW) 07:22:53 437.550
BEESAT 3 19 Dec 07:25:41 07:28:02 16° 69° (ENE) 07:30:24 437.485
XW-2B 19 Dec 07:25:47 07:29:08 29° 277° (W) 07:32:32 145.730 - 145.750
AO-73 19 Dec 07:26:14 07:27:39 11° 119° (ESE) 07:29:02 145.935
HO-68 19 Dec 07:29:29 07:36:39 81° 108° (ESE) 07:43:56 435.675
XW-2F 19 Dec 07:34:14 07:37:23 24° 275° (W) 07:40:33 145.980 - 146.000
STARS 19 Dec 07:42:15 07:46:47 75° 255° (WSW) 07:51:15 437.465
O/OREOS (USA 219) 19 Dec 07:49:32 07:53:15 24° 282° (WNW) 07:56:57 437.305
SEEDS 19 Dec 07:53:41 07:57:53 76° 105° (ESE) 08:02:07 437.485
XW-2C 19 Dec 07:55:05 07:57:03 14° 272° (W) 07:59:04 145.795 - 145.815
STRAND 1 19 Dec 07:56:05 07:59:48 19° 88° (E) 08:03:28 437.568
XW-2A 19 Dec 07:56:22 07:59:24 29° 108° (ESE) 08:02:27 145.665 - 145.685
AAUSAT CUBESAT 2 19 Dec 07:59:40 08:03:28 36° 109° (ESE) 08:07:18 437.432
RS-15 19 Dec 08:11:47 08:19:35 21° 179° (S) 08:27:37 29.354- 29.394
UWE-3 19 Dec 08:12:01 08:16:41 69° 105° (ESE) 08:21:26 435.000/436.395/437.385
PCSat 19 Dec 08:14:43 08:19:38 34° 231° (SW) 08:24:36 145.827
BEESAT 2 19 Dec 08:16:16 08:18:35 15° 69° (ENE) 08:20:53 435.950
CUBEBUG 2 19 Dec 08:21:29 08:26:07 55° 279° (W) 08:30:53 437.445
CUTE 1.7 + AOD 2 19 Dec 08:25:56 08:29:37 28° 275° (W) 08:33:20 437.475
ZACube-1 19 Dec 08:27:27 08:31:57 53° 107° (ESE) 08:36:29 437.345
CUTE-I 19 Dec 08:28:49 08:31:39 14° 270° (W) 08:34:31 437.470
Oscar 11 19 Dec 08:39:48 08:43:54 40° 109° (ESE) 08:48:01 .
AO-73 19 Dec 08:58:32 09:03:09 82° 283° (WNW) 09:07:48 145.935
AO-85 19 Dec 09:01:34 09:05:06 18° 71° (ENE) 09:08:35 145.980
BEESAT 3 19 Dec 09:01:36 09:05:12 41° 233° (SW) 09:08:51 437.485
Max Valier Satellite 19 Dec 09:13:28 09:14:26 11° 116° (ESE) 09:15:24 145.860
HO-68 19 Dec 09:20:27 09:25:08 18° 270° (W) 09:29:52 435.675
FALCONSAT 3 19 Dec 09:24:04 09:26:21 16° 22° (NNE) 09:28:38 435.103
XW-2A 19 Dec 09:30:06 09:32:08 15° 273° (W) 09:34:11 145.665 - 145.685
EO-88 19 Dec 09:30:41 09:31:58 12° 116° (ESE) 09:33:15 145.990 - 145.960
STRAND 1 19 Dec 09:34:10 09:39:15 52° 251° (WSW) 09:44:16 437.568
AAUSAT CUBESAT 2 19 Dec 09:36:10 09:39:02 18° 272° (W) 09:41:54 437.432
FO-29 19 Dec 09:45:20 09:51:42 66° 78° (ENE) 09:58:51 435.910
UWE-3 19 Dec 09:51:39 09:53:35 12° 269° (W) 09:55:31 435.000/436.395/437.385
BEESAT 2 19 Dec 09:52:14 09:55:55 43° 233° (SW) 09:59:38 435.950
DELFI C3 19 Dec 09:55:00 09:58:50 51° 106° (ESE) 10:02:43 145.870
TIGRISAT 19 Dec 10:02:04 10:03:22 11° 92° (E) 10:04:40 435.000
UNISAT 6 19 Dec 10:05:39 10:08:01 14° 90° (E) 10:10:20 437.425
ZACube-1 19 Dec 10:05:45 10:08:31 16° 271° (W) 10:11:17 437.345
Oscar 11 19 Dec 10:17:08 10:20:10 18° 272° (W) 10:23:14 .
RS-15 19 Dec 10:26:36 10:36:46 35° 145° (SE) 10:47:17 29.354- 29.394
AO-85 19 Dec 10:39:47 10:45:07 66° 235° (SW) 10:50:15 145.980
SO-50 19 Dec 10:40:56 10:42:33 12° 146° (SE) 10:44:10 436.795
Max Valier Satellite 19 Dec 10:44:02 10:47:44 56° 281° (W) 10:51:29 145.860
PRISM 19 Dec 10:58:47 11:00:37 13° 89° (E) 11:02:26 437.425
EO-88 19 Dec 11:01:33 11:05:08 49° 279° (W) 11:08:45 145.990 - 145.960
FALCONSAT 3 19 Dec 11:01:34 11:04:53 31° 7° (N) 11:08:11 435.103
LO-87 19 Dec 11:18:02 11:21:12 28° 110° (ESE) 11:24:25 145.935 - 145.965
ESTCUBE 1 19 Dec 11:27:07 11:31:08 32° 111° (ESE) 11:35:11 437.505/2401.250
FO-29 19 Dec 11:31:31 11:36:21 23° 243° (WSW) 11:41:35 435.910
DELFI C3 19 Dec 11:32:26 11:33:52 12° 270° (W) 11:35:20 145.870
TIGRISAT 19 Dec 11:35:55 11:40:35 71° 254° (WSW) 11:45:03 435.000
AIST 2D 19 Dec 11:36:35 11:37:11 10° 90° (E) 11:37:45 435.315
UNISAT 6 19 Dec 11:40:31 11:45:07 58° 253° (WSW) 11:49:32 437.425
QB50P2 19 Dec 12:14:47 12:16:39 12° 90° (E) 12:18:30 145.880/145.840
SO-50 19 Dec 12:19:21 12:24:00 62° 125° (SE) 12:28:30 436.795
AO-85 19 Dec 12:23:50 12:26:27 14° 217° (SW) 12:29:03 145.980
PRISM 19 Dec 12:32:04 12:36:11 54° 253° (WSW) 12:40:16 437.425
RS-15 19 Dec 12:39:01 12:50:32 84° 300° (WNW) 13:02:35 29.354- 29.394
FALCONSAT 3 19 Dec 12:40:16 12:43:33 30° 352° (N) 12:46:50 435.103
NANOSAT C BR1 19 Dec 12:40:30 12:43:37 19° 87° (E) 12:46:41 145.865
VELOX 1 19 Dec 12:40:48 12:44:36 28° 112° (ESE) 12:48:25 145.980
SPROUT 19 Dec 12:45:59 12:50:11 52° 107° (ESE) 12:54:28 437.525
LO-87 19 Dec 12:52:02 12:54:36 18° 273° (W) 12:57:13 145.935 - 145.965
EO-79 19 Dec 12:58:18 13:02:16 34° 83° (E) 13:06:09 145.935-145.965
ESTCUBE 1 19 Dec 13:04:13 13:07:55 24° 275° (W) 13:11:39 437.505/2401.250
AIST 2D 19 Dec 13:07:11 13:10:34 44° 254° (WSW) 13:13:56 435.315
POLYITAN 1 19 Dec 13:22:20 13:26:40 65° 78° (ENE) 13:30:53 437.675
DX 1 19 Dec 13:23:03 13:26:02 18° 116° (ESE) 13:29:01 434.975-435.025
DUCHIFAT 1 19 Dec 13:46:01 13:50:20 89° 238° (WSW) 13:54:35 145.980
QB50P2 19 Dec 13:48:31 13:52:46 57° 253° (WSW) 13:56:57 145.880/145.840
SO-50 19 Dec 14:01:22 14:03:54 15° 288° (WNW) 14:06:23 436.795
Oscar 19 19 Dec 14:02:34 14:06:18 20° 88° (E) 14:10:01 437.125/150
YUBILEINY 19 Dec 14:02:36 14:05:40 12° 107° (ESE) 14:08:43 435.215
50 SAT 19 Dec 14:04:34 14:07:36 42° 107° (ESE) 14:10:42 437.505
AO-91 19 Dec 14:04:38 14:09:08 25° 87° (E) 14:13:33 145.960
BUGSAT 1 19 Dec 14:08:34 14:12:33 36° 82° (E) 14:16:26 437.445
NANOSAT C BR1 19 Dec 14:15:27 14:19:25 36° 250° (WSW) 14:23:19 145.865
VELOX 1 19 Dec 14:17:14 14:20:58 27° 275° (W) 14:24:45 145.980
FALCONSAT 3 19 Dec 14:19:59 14:22:03 14° 337° (NNW) 14:24:08 435.103
SPROUT 19 Dec 14:24:08 14:26:22 14° 271° (W) 14:28:38 437.525
UKube-1 19 Dec 14:31:54 14:36:09 59° 107° (ESE) 14:40:29 .
EO-79 19 Dec 14:34:30 14:37:46 21° 246° (WSW) 14:41:00 145.935-145.965
BEESAT 19 Dec 14:44:04 14:46:35 14° 119° (ESE) 14:49:07 436.000
RS-15 19 Dec 14:53:35 15:01:16 21° 280° (W) 15:09:11 29.354- 29.394
DX 1 19 Dec 14:57:42 15:01:51 43° 279° (W) 15:06:05 434.975-435.025
POLYITAN 1 19 Dec 15:00:04 15:01:51 12° 242° (WSW) 15:03:37 437.675
ITUPSAT 1 19 Dec 15:13:48 15:17:49 27° 114° (ESE) 15:21:53 437.325
MOZHAYETS 4 19 Dec 15:17:29 15:21:50 40° 109° (ESE) 15:26:14
PCSat 19 Dec 15:18:53 15:23:45 31° 130° (SE) 15:28:33 145.827
Gurwin Techsat 1B 19 Dec 15:20:01 15:25:27 78° 76° (ENE) 15:30:48 435.225
CUBESAT XI-V 19 Dec 15:20:05 15:20:58 10° 120° (ESE) 15:21:51 437.345
AO-91 19 Dec 15:40:29 15:45:39 45° 251° (WSW) 15:50:46 145.960
Oscar 19 19 Dec 15:40:52 15:45:53 50° 251° (WSW) 15:50:51 437.125/150
BEESAT 3 19 Dec 15:41:40 15:43:28 13° 139° (SE) 15:45:18 437.485
AO-7 19 Dec 15:43:25 15:49:35 22° 88° (E) 15:55:40 .
BUGSAT 1 19 Dec 15:44:32 15:47:37 20° 246° (WSW) 15:50:39 437.445
YUBILEINY 19 Dec 15:52:04 16:00:42 71° 87° (E) 16:09:25 435.215
UKube-1 19 Dec 16:10:44 16:12:32 12° 271° (W) 16:14:21 .
M-CUBED/EXP-1 PRIME 19 Dec 16:14:25 16:14:43 10° 82° (E) 16:15:01 437.505
BEESAT 19 Dec 16:18:56 16:23:44 70° 283° (WNW) 16:28:37 436.000
BEESAT 2 19 Dec 16:33:12 16:34:56 12° 139° (SE) 16:36:41 435.950
KKS-1 19 Dec 16:35:41 16:37:36 13° 119° (ESE) 16:39:33 437.445
ITUPSAT 1 19 Dec 16:51:04 16:55:27 34° 277° (W) 16:59:56 437.325
CUBESAT XI-V 19 Dec 16:52:54 16:57:34 89° 289° (WNW) 17:02:17 437.345
MOZHAYETS 4 19 Dec 16:55:35 16:59:06 21° 273° (W) 17:02:40
Gurwin Techsat 1B 19 Dec 17:01:43 17:04:41 15° 240° (WSW) 17:07:40 435.225
PCSat 19 Dec 17:02:09 17:07:13 40° 291° (WNW) 17:12:14 145.827
ITAMSAT 1 19 Dec 17:02:54 17:08:08 55° 79° (E) 17:13:16 435.822/435.867
STARS 19 Dec 17:06:27 17:07:03 10° 120° (ESE) 17:07:40 437.465
BEESAT 3 19 Dec 17:17:34 17:21:29 77° 301° (WNW) 17:25:23 437.485
NO-84 19 Dec 17:21:36 17:24:52 22° 53° (NE) 17:28:04 435.350 FM
AO-85 19 Dec 17:32:43 17:35:30 16° 142° (SE) 17:38:08 145.980
